| time (UTC) | temp C | wind direction | speed KPH | gust KPH | rain 1hr cm | rain 24hr cm | rain mn cm | humidity % | barometer mb |
| 20260906060047 | 20 | 295 | 0.0 | 3.2 | 0.00 | 0.00 | 0.00 | 75 | 1023.5 |
| 20260906054517 | 19 | 282 | 0.0 | 3.2 | 0.00 | 0.00 | 0.00 | 76 | 1023.1 |
| 20260906053013 | 20 | 281 | 0.0 | 1.6 | 0.00 | 0.00 | 0.00 | 74 | 1023.0 |
| 20260906051503 | 20 | 332 | 4.8 | 6.4 | 0.00 | 0.00 | 0.00 | 76 | 1022.8 |
| 20260906050048 | 18 | 276 | 0.0 | 3.2 | 0.00 | 0.00 | 0.00 | 80 | 1022.6 |
| 20260906044512 | 18 | 276 | 1.6 | 6.4 | 0.00 | 0.00 | 0.00 | 79 | 1022.4 |
| 20260906043016 | 18 | 279 | 3.2 | 4.8 | 0.00 | 0.00 | 0.00 | 78 | 1022.5 |
| 20260906041515 | 18 | 266 | 1.6 | 4.8 | 0.00 | 0.00 | 0.00 | 77 | 1022.3 |
| 20260906040032 | 18 | 314 | 0.0 | 4.8 | 0.00 | 0.00 | 0.00 | 75 | 1022.3 |
| 20260906034528 | 19 | 58 | 0.0 | 3.2 | 0.00 | 0.00 | 0.00 | 74 | 1022.3 |
| 20260906033038 | 20 | 285 | 0.0 | 3.2 | 0.00 | 0.00 | 0.00 | 71 | 1022.2 |
| 20260906031526 | 20 | 335 | 0.0 | 3.2 | 0.00 | 0.00 | 0.00 | 69 | 1022.0 |
| 20260906030045 | 20 | 266 | 1.6 | 4.8 | 0.00 | 0.00 | 0.00 | 71 | 1021.8 |
| 20260906024530 | 18 | 271 | 0.0 | 3.2 | 0.00 | 0.00 | 0.00 | 76 | 1021.7 |
| 20260906023004 | 18 | 277 | 0.0 | 4.8 | 0.00 | 0.00 | 0.00 | 78 | 1021.6 |
| 20260906021544 | 18 | 339 | 0.0 | 1.6 | 0.00 | 0.00 | 0.00 | 78 | 1021.6 |
| 20260906020011 | 19 | 272 | 0.0 | 4.8 | 0.00 | 0.00 | 0.00 | 75 | 1021.4 |
| 20260906014604 | 20 | 285 | 0.0 | 3.2 | 0.00 | 0.00 | 0.00 | 72 | 1021.4 |
| 20260906013051 | 21 | 342 | 1.6 | 4.8 | 0.00 | 0.00 | 0.00 | 69 | 1021.3 |
| 20260906011546 | 21 | 88 | 3.2 | 6.4 | 0.00 | 0.00 | 0.00 | 68 | 1021.2 |
| 20260906010007 | 22 | 55 | 0.0 | 8.0 | 0.00 | 0.00 | 0.00 | 69 | 1021.0 |
| 20260906004537 | 22 | 252 | 1.6 | 4.8 | 0.00 | 0.00 | 0.00 | 69 | 1020.9 |
| 20260906003002 | 22 | 221 | 3.2 | 11.3 | 0.00 | 0.00 | 0.00 | 71 | 1020.8 |
| 20260906001501 | 21 | 342 | 0.0 | 6.4 | 0.00 | 0.00 | 0.00 | 73 | 1020.8 |
| 20260905234540 | 22 | 22 | 0.0 | 4.8 | 0.00 | 0.00 | 0.00 | 73 | 1020.8 |
| 20260905233026 | 22 | 233 | 1.6 | 6.4 | 0.00 | 0.00 | 0.00 | 72 | 1020.9 |
| 20260905231501 | 23 | 308 | 1.6 | 12.9 | 0.00 | 0.00 | 0.00 | 70 | 1021.0 |
| 20260905230100 | 22 | 236 | 4.8 | 6.4 | 0.00 | 0.00 | 0.00 | 73 | 1020.9 |
| 20260905224557 | 21 | 230 | 1.6 | 9.7 | 0.00 | 0.00 | 0.00 | 76 | 1020.8 |
| 20260905223009 | 21 | 283 | 1.6 | 9.7 | 0.00 | 0.00 | 0.00 | 79 | 1020.8 |
| 20260905221540 | 21 | 288 | 1.6 | 4.8 | 0.00 | 0.00 | 0.00 | 80 | 1020.5 |
| 20260905220025 | 21 | 285 | 0.0 | 3.2 | 0.00 | 0.00 | 0.00 | 79 | 1020.4 |
| 20260905214555 | 21 | 85 | 0.0 | 3.2 | 0.00 | 0.00 | 0.00 | 78 | 1020.4 |
| 20260905213033 | 22 | 283 | 0.0 | 6.4 | 0.00 | 0.00 | 0.00 | 77 | 1020.3 |
| 20260905211603 | 22 | 283 | 1.6 | 4.8 | 0.00 | 0.00 | 0.00 | 78 | 1020.1 |
| 20260905210003 | 22 | 337 | 1.6 | 4.8 | 0.00 | 0.00 | 0.00 | 79 | 1020.0 |
| 20260905204539 | 22 | 337 | 3.2 | 6.4 | 0.00 | 0.00 | 0.00 | 79 | 1019.9 |
| 20260905203014 | 22 | 8 | 0.0 | 3.2 | 0.00 | 0.00 | 0.00 | 79 | 1019.9 |
| 20260905201522 | 22 | 354 | 0.0 | 9.7 | 0.00 | 0.00 | 0.00 | 80 | 1019.6 |
| 20260905200016 | 22 | 324 | 0.0 | 3.2 | 0.00 | 0.00 | 0.00 | 80 | 1019.6 |
| 20260905194537 | 22 | 304 | 0.0 | 1.6 | 0.00 | 0.00 | 0.00 | 80 | 1019.4 |
| 20260905193007 | 22 | 320 | 0.0 | 4.8 | 0.00 | 0.00 | 0.00 | 80 | 1019.2 |
| 20260905191551 | 22 | 283 | 0.0 | 0.0 | 0.00 | 0.00 | 0.00 | 81 | 1019.0 |
| 20260905190009 | 22 | 283 | 0.0 | 6.4 | 0.00 | 0.00 | 0.00 | 80 | 1018.7 |
| 20260905184556 | 23 | 279 | 0.0 | 0.0 | 0.00 | 0.00 | 0.00 | 79 | 1018.7 |
| 20260905183054 | 23 | 279 | 0.0 | 1.6 | 0.00 | 0.00 | 0.00 | 79 | 1018.3 |
| 20260905181549 | 25 | 279 | 0.0 | 3.2 | 0.00 | 0.00 | 0.00 | 78 | 1018.0 |
| 20260905180057 | 25 | 3 | 0.0 | 3.2 | 0.00 | 0.00 | 0.00 | 76 | 1017.9 |
| 20260905174604 | 26 | 284 | 0.0 | 1.6 | 0.00 | 0.00 | 0.00 | 74 | 1017.7 |
| 20260905173016 | 26 | 275 | 0.0 | 6.4 | 0.00 | 0.00 | 0.00 | 75 | 1017.5 |
| 20260905171546 | 27 | 71 | 1.6 | 3.2 | 0.00 | 0.00 | 0.00 | 72 | 1017.4 |
| 20260905170038 | 28 | 273 | 0.0 | 0.0 | 0.00 | 0.00 | 0.00 | 72 | 1017.4 |
| 20260905164525 | 28 | 273 | 0.0 | 3.2 | 0.00 | 0.00 | 0.00 | 67 | 1017.3 |
| 20260905163119 | 29 | 284 | 0.0 | 3.2 | 0.00 | 0.00 | 0.00 | 66 | 1017.3 |
| 20260905161602 | 30 | 46 | 0.0 | 0.0 | 0.00 | 0.00 | 0.00 | 59 | 1017.3 |
| 20260905160046 | 30 | 46 | 0.0 | 1.6 | 0.00 | 0.00 | 0.00 | 56 | 1017.3 |
| 20260905154548 | 30 | 86 | 0.0 | 3.2 | 0.00 | 0.00 | 0.00 | 52 | 1017.3 |
| 20260905153020 | 30 | 75 | 0.0 | 4.8 | 0.00 | 0.00 | 0.00 | 55 | 1017.3 |
| 20260905151539 | 30 | 100 | 1.6 | 3.2 | 0.00 | 0.00 | 0.00 | 52 | 1017.4 |
| 20260905150013 | 30 | 82 | 1.6 | 4.8 | 0.00 | 0.00 | 0.00 | 53 | 1017.4 |
| 20260905144550 | 30 | 85 | 1.6 | 4.8 | 0.00 | 0.00 | 0.00 | 54 | 1017.5 |
| 20260905143044 | 31 | 108 | 3.2 | 6.4 | 0.00 | 0.00 | 0.00 | 52 | 1017.5 |
| 20260905141505 | 31 | 223 | 1.6 | 4.8 | 0.00 | 0.00 | 0.00 | 53 | 1017.4 |
| 20260905140045 | 31 | 113 | 1.6 | 6.4 | 0.00 | 0.00 | 0.00 | 52 | 1017.4 |
| 20260905134557 | 30 | 269 | 0.0 | 9.7 | 0.00 | 0.00 | 0.00 | 57 | 1017.6 |
| 20260905133001 | 31 | 232 | 4.8 | 8.0 | 0.00 | 0.00 | 0.00 | 54 | 1017.7 |
| 20260905131533 | 30 | 217 | 0.0 | 8.0 | 0.00 | 0.00 | 0.00 | 54 | 1017.9 |
| 20260905130041 | 31 | 188 | 3.2 | 8.0 | 0.00 | 0.00 | 0.00 | 54 | 1018.0 |
| 20260905124604 | 30 | 234 | 0.0 | 6.4 | 0.00 | 0.00 | 0.00 | 54 | 1018.1 |
| 20260905123003 | 30 | 227 | 3.2 | 6.4 | 0.00 | 0.00 | 0.00 | 53 | 1018.2 |
| 20260905121605 | 30 | 279 | 1.6 | 9.7 | 0.00 | 0.00 | 0.00 | 55 | 1018.3 |
| 20260905120042 | 30 | 83 | 0.0 | 6.4 | 0.00 | 0.00 | 0.00 | 54 | 1018.4 |
| 20260905114546 | 29 | 280 | 0.0 | 4.8 | 0.00 | 0.00 | 0.00 | 56 | 1018.4 |
| 20260905113015 | 29 | 298 | 1.6 | 6.4 | 0.00 | 0.00 | 0.00 | 56 | 1018.7 |
| 20260905111605 | 28 | 242 | 3.2 | 8.0 | 0.00 | 0.00 | 0.00 | 57 | 1018.7 |
| 20260905110015 | 28 | 252 | 3.2 | 6.4 | 0.00 | 0.00 | 0.00 | 60 | 1018.6 |
| 20260905104524 | 28 | 233 | 0.0 | 3.2 | 0.00 | 0.00 | 0.00 | 60 | 1018.5 |
| 20260905103013 | 27 | 226 | 1.6 | 8.0 | 0.00 | 0.00 | 0.00 | 60 | 1018.7 |
| 20260905101557 | 27 | 248 | 3.2 | 6.4 | 0.00 | 0.00 | 0.00 | 61 | 1018.7 |
| 20260905100031 | 26 | 277 | 3.2 | 11.3 | 0.00 | 0.00 | 0.00 | 63 | 1018.6 |
| 20260905094600 | 26 | 277 | 3.2 | 12.9 | 0.00 | 0.00 | 0.00 | 64 | 1018.9 |
| 20260905093106 | 26 | 245 | 3.2 | 8.0 | 0.00 | 0.00 | 0.00 | 66 | 1018.7 |
| 20260905091524 | 27 | 200 | 0.0 | 3.2 | 0.00 | 0.00 | 0.00 | 62 | 1018.7 |
| 20260905090036 | 26 | 84 | 1.6 | 6.4 | 0.00 | 0.00 | 0.00 | 62 | 1018.7 |
| 20260905084512 | 26 | 208 | 3.2 | 6.4 | 0.00 | 0.00 | 0.00 | 61 | 1018.7 |
| 20260905083018 | 25 | 272 | 4.8 | 6.4 | 0.00 | 0.00 | 0.00 | 61 | 1018.5 |
| 20260905081550 | 26 | 279 | 1.6 | 11.3 | 0.00 | 0.00 | 0.00 | 63 | 1018.6 |
| 20260905080036 | 25 | 285 | 0.0 | 4.8 | 0.00 | 0.00 | 0.00 | 67 | 1018.7 |
| 20260905074548 | 25 | 272 | 4.8 | 8.0 | 0.00 | 0.00 | 0.00 | 63 | 1018.4 |
| 20260905073021 | 23 | 281 | 3.2 | 6.4 | 0.00 | 0.00 | 0.00 | 69 | 1018.3 |
| 20260905071555 | 23 | 294 | 3.2 | 6.4 | 0.00 | 0.00 | 0.00 | 73 | 1018.4 |
| 20260905070024 | 23 | 308 | 0.0 | 6.4 | 0.00 | 0.00 | 0.00 | 73 | 1018.4 |
| 20260905064538 | 22 | 281 | 1.6 | 4.8 | 0.00 | 0.00 | 0.00 | 74 | 1018.3 |
| 20260905063100 | 22 | 314 | 1.6 | 4.8 | 0.00 | 0.00 | 0.00 | 75 | 1018.3 |
| 20260905061529 | 22 | 3 | 1.6 | 4.8 | 0.00 | 0.00 | 0.00 | 74 | 1018.2 |